Location: Ballingbuur
(53.0000°N, 5.7667°E)
Time: 06:38:49
(UTC+00:00)

USA 307 - Pass Details

Date: 29 November 2020
Orbit: 563 x 583 km, 54.0° (Epoch: 22 January)

Event Time Altitude Azimuth Distance (km) Brightness Sun altitude
Exits shadow 06:43:26 - 286° (WNW) 2,152 5.2 -6.1°
Reaches altitude 10° 06:44:04 10° 284° (WNW) 1,906 4.9 -6.0°
Maximum altitude 06:48:19 55° 207° (SSW) 707 3.4 -5.5°
Drops below altitude 10° 06:52:33 10° 130° (SE) 1,902 7.3 -4.9°
Sets 06:54:50 0° 126° (SE) 2,799 9.2 -4.6°
